Regional Weather Roundup
Issued by NWS

Home | Current Version | Previous Version | Graphics & Text | Print | Product List | Glossary On
Versions: 1 2 3 4 5 6 7 8 9 10 11 12 13 14 15 16 17 18 19 20 21 22 23 24 25 26 27 28 29 30 31 32 33 34 35 36 37 38 39 40 41 42 43 44 45 46 47 48 49 50
000
ASUS43 KTOP 180308
RWRKS

WEATHER ROUNDUP FOR KANSAS
NATIONAL WEATHER SERVICE GOODLAND KS
900 PM CST SAT FEB 17 2018

NOTE:  "FAIR" INDICATES FEW OR NO CLOUDS BELOW 12,000 FEET WITH NO
SIGNIFICANT WEATHER AND/OR OBSTRUCTIONS TO VISIBILITY.

KSZ001>006-013>018-027>032-041>047-180400-
NORTHWEST KANSAS

CITY           SKY/WX    TMP DP  RH WIND       PRES   REMARKS
GOODLAND       CLEAR     33  16  49 S14       29.98F WCI  23
HAYS           CLEAR     33   9  36 SE7       30.10F
HILL CITY      CLEAR     40  14  34 S9        30.07F
RUSSELL        CLEAR     34  11  38 S8        30.10S
$$

KSZ061>065-074>080-084>089-180400-
SOUTHWEST KANSAS

CITY           SKY/WX    TMP DP  RH WIND       PRES   REMARKS
DODGE CITY     CLEAR     38   9  30 SE13      30.11F WCI  30
ELKHART        CLEAR     37  14  39 S10       30.09F WCI  29
GARDEN CITY    CLEAR     36   8  31 SE12      30.08F WCI  28
GREAT BEND     CLEAR     32  10  40 S9        30.13F
LIBERAL        CLOUDY    37   7  28 S10       30.12F WCI  30
PRATT          CLEAR     43   8  23 SE7       30.14F
$$

KSZ066>073-081>083-090>101-180400-
SOUTHEAST KANSAS

CITY           SKY/WX    TMP DP  RH WIND       PRES   REMARKS
CHANUTE        CLEAR     36  21  54 SE5       30.19R
COFFEYVILLE    CLEAR     36  28  73 CALM      30.20R
HUTCHINSON     CLEAR     29  12  49 CALM      30.14F
MEDICINE LODGE   N/A     45  12  26 E7        30.15F
NEWTON         CLEAR     39  11  31 S10       30.16S WCI  32
PARSONS        CLEAR     32  27  81 CALM      30.21R
WICHITA INTL   PTCLDY    37  14  38 S5        30.16S
WICHITA JABRA  CLEAR     40  14  34 S6        30.16S
WICHITA MCCONL CLEAR     45  11  25 SE5       30.16S
WINFIELD       CLEAR     35  19  52 CALM      30.18S
$$

KSZ007>012-019>026-033>040-048>060-102>105-180400-
NORTHEAST KANSAS

CITY           SKY/WX    TMP DP  RH WIND       PRES   REMARKS
CONCORDIA      CLEAR     37  16  42 S5        30.10F
EMPORIA        CLEAR     31  14  49 S8        30.17S
LAWRENCE       CLEAR     26  20  77 N5        30.16F
MANHATTAN      PTCLDY    30  15  53 CALM      30.14F
MARYSVILLE     CLEAR     34  21  60 E6        30.13S
OLATHE IND     CLEAR     34  20  56 CALM      30.18R
OLATHE EXE     CLEAR     44  19  36 NE3       30.17S
SALINA         CLEAR     35  13  40 S9        30.14R
TOPEKA BILLARD CLEAR     34  19  54 CALM      30.16S
TOPEKA FORBES  CLEAR     31  18  58 CALM      30.15F
$$




USA.gov is the U.S. government's official web portal to all federal, state and local government web resources and services.